{"data":{"norad_id":40143,"intl_designator":"2014-053A","name":"YAOGAN-21","alt_names":[],"object_type":"PAYLOAD","status":"ACTIVE","operator":null,"country":"PRC","launch_date":"2014-09-08","launch_site_code":"TAISC","launch_vehicle":null,"mission":null,"orbit_class":"UNKNOWN","rcs_meters":4.9968,"size_class":null,"mass_kg":null,"dimensions":null,"purposes":["earth_obs"],"wikipedia_slug":null,"has_3d_model":false,"image_url":null,"decayed_at":null,"tle_current":{"epoch":"2026-09-20T04:26:06.518688Z","epoch_age_seconds":41704,"freshness":"FRESH","line1":"1 40143U 14053A   26263.18479767  .00004023  00000+0  15239-3 0  9994","line2":"2 40143  97.1402 299.3735 0009542 111.0429 249.1832 15.27412969669458","mean_motion":15.27412969,"eccentricity":0.0009542,"inclination_deg":97.1402,"raan_deg":299.3735,"arg_perigee_deg":111.0429,"mean_anomaly_deg":249.1832,"bstar":0.00015239,"rev_number":66945,"period_min":94.277057300539,"perigee_km":477.0018714604,"apogee_km":490.09671358105,"semimajor_km":6861.6862925207,"source":"CELESTRAK","updated_at":"2026-09-20T09:00:33.962068Z"}}}